CW4610 Weather Reports


Display with metric or nautical units.
time (UTC)temp
F
wind
direction
speed
MPH
gust
MPH
rain 1hr
in
rain 24hr
in
rain mn
in
humidity
%
barometer
mb
20260903193019 60 0 6.0 11.0 0.00 0.65 0.04 88 1008.8
20260903192018 61 0 6.0 11.0 0.00 0.65 0.04 87 1008.7
20260903191052 61 338 6.0 12.0 0.00 0.65 0.04 88 1008.7
20260903190019 61 315 3.0 8.0 0.00 0.65 0.04 90 1008.6
20260903185059 60 315 4.0 9.0 0.00 0.65 0.04 89 1008.6
20260903184019 60 0 4.0 6.0 0.00 0.65 0.04 91 1008.4
20260903183019 60 0 3.0 5.0 0.00 0.65 0.04 91 1008.3
20260903182019 59 0 4.0 9.0 0.00 0.65 0.04 91 1008.3
20260903181059 59 315 5.0 9.0 0.00 0.65 0.04 92 1008.1
20260903180018 59 0 5.0 8.0 0.00 0.65 0.04 94 1007.9
20260903175021 59 315 5.0 9.0 0.00 0.65 0.04 97 1007.9
20260903174059 59 315 4.0 7.0 0.00 0.65 0.04 97 1007.8
20260903173019 58 293 4.0 7.0 0.00 0.65 0.04 98 1007.7
20260903172040 58 293 4.0 8.0 0.00 0.65 0.04 98 1007.7
20260903171019 58 315 2.0 6.0 0.00 0.65 0.04 98 1007.6
20260903170019 58 315 3.0 5.0 0.00 0.65 0.04 98 1007.4
20260903165018 58 270 1.0 3.0 0.00 0.65 0.04 98 1007.3
20260903164018 58 225 2.0 4.0 0.00 0.65 0.04 98 1007.2
20260903163019 58 225 2.0 3.0 0.00 0.65 0.04 98 1007.2
20260903162018 58 293 1.0 2.0 0.00 0.65 0.04 99 1007.2
20260903161018 57 225 0.0 2.0 0.00 0.65 0.04 99 1007.2
20260903160019 57 315 0.0 1.0 0.00 0.65 0.04 98 1007.0
20260903155018 57 315 1.0 2.0 0.00 0.66 0.04 99 1007.0
20260903154059 57 315 2.0 4.0 0.00 0.66 0.04 99 1006.8
20260903153027 56 0 2.0 4.0 0.01 0.66 0.04 99 1006.7
20260903152018 56 315 2.0 3.0 0.01 0.66 0.04 98 1006.7
20260903151058 55 203 0.0 1.0 0.01 0.66 0.04 98 1006.7
20260903150018 55 203 1.0 2.0 0.01 0.66 0.04 98 1006.5
20260903145019 55 68 0.0 1.0 0.01 0.69 0.04 98 1006.5
20260903144019 54 78 0.0 0.0 0.01 0.69 0.04 98 1006.2
20260903143058 54 68 0.0 1.0 0.00 0.68 0.03 98 1006.2
20260903142018 54 158 0.0 2.0 0.00 0.68 0.03 98 1006.2
20260903141018 54 153 0.0 0.0 0.00 0.68 0.03 98 1006.1
20260903140018 54 153 0.0 0.0 0.00 0.68 0.03 98 1006.0
20260903135019 54 158 1.0 2.0 0.00 0.70 0.03 98 1005.9
20260903134018 54 90 0.0 1.0 0.00 0.70 0.03 98 1005.7
20260903133018 54 135 0.0 2.0 0.00 0.70 0.03 98 1005.7
20260903132018 54 113 2.0 3.0 0.00 0.70 0.03 98 1005.7
20260903131018 54 0 2.0 3.0 0.00 0.70 0.03 98 1005.6
20260903130058 55 338 1.0 3.0 0.00 0.70 0.03 98 1005.5
20260903125018 55 0 2.0 3.0 0.00 0.76 0.03 98 1005.5
20260903124018 54 23 2.0 3.0 0.00 0.76 0.03 98 1005.2
20260903123018 54 25 0.0 0.0 0.00 0.76 0.03 98 1005.2
20260903122017 54 25 0.0 0.0 0.00 0.76 0.03 98 1005.2
20260903121059 54 25 0.0 0.0 0.00 0.76 0.03 98 1005.2
20260903120058 54 25 0.0 0.0 0.00 0.76 0.03 98 1005.1
20260903115018 54 23 0.0 1.0 0.00 0.86 0.03 98 1005.1
20260903114018 55 25 0.0 0.0 0.00 0.86 0.03 98 1004.9
20260903113018 55 23 1.0 2.0 0.00 0.86 0.03 98 1004.8
20260903112018 55 23 2.0 3.0 0.00 0.86 0.03 98 1004.7
20260903111017 55 23 0.0 3.0 0.00 0.86 0.03 98 1004.7
20260903110018 55 158 1.0 3.0 0.00 0.86 0.03 98 1004.6
20260903105100 55 135 0.0 1.0 0.01 0.87 0.03 98 1004.5
20260903104018 55 135 0.0 1.0 0.01 0.87 0.03 98 1004.4
20260903103017 55 136 0.0 0.0 0.01 0.87 0.03 97 1004.3
20260903102020 55 135 0.0 2.0 0.01 0.87 0.03 97 1004.3
20260903101020 55 135 0.0 1.0 0.01 0.87 0.03 97 1004.3
20260903100044 54 135 3.0 4.0 0.01 0.87 0.03 97 1004.2
20260903095020 54 68 1.0 2.0 0.00 0.89 0.02 97 1004.2
20260903094022 54 113 1.0 2.0 0.00 0.89 0.02 97 1004.1
20260903093059 54 113 1.0 2.0 0.00 0.89 0.02 97 1004.0
20260903092018 54 90 1.0 3.0 0.00 0.89 0.02 97 1004.0
20260903091039 54 90 1.0 2.0 0.00 0.89 0.02 97 1003.9
20260903090020 54 135 1.0 2.0 0.00 0.89 0.02 97 1003.9
20260903085020 54 135 1.0 2.0 0.00 1.02 0.02 97 1003.9
20260903084020 54 68 1.0 3.0 0.00 1.02 0.02 97 1003.8
20260903083023 54 180 2.0 5.0 0.01 1.02 0.02 97 1003.7
20260903082020 54 113 2.0 3.0 0.02 1.02 0.02 97 1003.7
20260903081019 54 113 1.0 2.0 0.02 1.02 0.02 97 1003.6
20260903080059 54 45 2.0 4.0 0.02 1.02 0.02 97 1003.6
20260903075019 54 45 1.0 3.0 0.02 1.08 0.02 97 1003.6
20260903074019 54 90 2.0 3.0 0.02 1.08 0.02 97 1003.5
20260903073019 54 90 2.0 3.0 0.01 1.07 0.01 97 1003.4
20260903072020 54 68 1.0 2.0 0.00 1.06 0.00 97 1003.3
20260903071020 54 23 2.0 3.0 0.00 1.06 0.00 96 1003.0
20260903070100 54 68 2.0 4.0 0.00 1.07 1.06 96 1003.0
20260903065019 54 0 2.0 3.0 0.00 1.07 1.06 97 1003.0
20260903064019 54 23 1.0 2.0 0.00 1.07 1.06 96 1002.9
20260903063058 54 68 2.0 5.0 0.00 1.07 1.06 96 1002.7
20260903062019 54 68 3.0 6.0 0.00 1.07 1.06 96 1002.7
20260903061021 54 68 2.0 3.0 0.00 1.07 1.06 96 1002.6
20260903060058 54 68 3.0 6.0 0.00 1.07 1.06 96 1002.5
20260903055018 55 68 3.0 5.0 0.01 1.07 1.06 96 1002.5
20260903054019 55 90 4.0 7.0 0.01 1.07 1.06 96 1002.5
20260903053018 55 45 1.0 2.0 0.01 1.07 1.06 95 1002.3
20260903052058 55 23 2.0 3.0 0.01 1.07 1.06 95 1002.2
20260903051018 55 90 0.0 2.0 0.02 1.07 1.06 95 1002.1
20260903050018 55 113 2.0 4.0 0.02 1.07 1.06 94 1002.1
20260903045018 56 135 1.0 2.0 0.02 1.06 1.05 95 1002.1
20260903044018 56 135 3.0 7.0 0.03 1.06 1.05 95 1002.0
20260903043018 56 113 5.0 9.0 0.05 1.06 1.05 95 1002.0
20260903042019 57 135 8.0 15.0 0.07 1.06 1.05 96 1001.9
20260903041019 58 135 5.0 7.0 0.07 1.05 1.04 97 1001.5
20260903040058 58 113 3.0 5.0 0.10 1.05 1.04 97 1001.1
20260903035058 58 113 2.0 3.0 0.11 1.04 1.03 97 1000.9
20260903034018 58 113 1.0 2.0 0.12 1.03 1.02 96 1000.6
20260903033058 58 113 1.0 3.0 0.13 1.01 1.00 96 1000.5
20260903032058 58 158 1.0 3.0 0.13 0.99 0.98 97 1000.4
20260903031019 58 135 1.0 2.0 0.14 0.98 0.97 96 1000.1
20260903030019 58 68 0.0 2.0 0.13 0.95 0.94 96 999.9
20260903025018 58 45 1.0 3.0 0.12 0.93 0.92 96 999.9
20260903024018 58 158 1.0 3.0 0.09 0.90 0.89 96 999.9
20260903023018 58 203 1.0 2.0 0.06 0.87 0.86 96 999.7
20260903022058 59 23 1.0 2.0 0.05 0.86 0.85 96 999.7
20260903021017 59 180 1.0 2.0 0.04 0.84 0.83 96 999.7
20260903020059 59 180 1.0 2.0 0.02 0.82 0.81 96 999.6
20260903015020 59 90 2.0 3.0 0.02 0.81 0.80 96 999.6
20260903014059 59 113 2.0 3.0 0.02 0.81 0.80 96 999.6
20260903013019 59 180 1.0 2.0 0.04 0.81 0.80 96 999.5
20260903012020 59 203 1.0 2.0 0.06 0.81 0.80 96 999.4
20260903011100 59 90 0.0 2.0 0.08 0.80 0.79 95 999.3
20260903010020 59 45 2.0 3.0 0.10 0.80 0.79 95 999.5
20260903005020 59 45 2.0 4.0 0.11 0.79 0.78 95 999.6
20260903004047 59 23 2.0 4.0 0.11 0.78 0.77 95 999.9
20260903003020 59 158 1.0 3.0 0.11 0.77 0.76 95 999.9
20260903002021 59 135 0.0 2.0 0.10 0.75 0.74 95 999.9
20260903001020 59 275 0.0 0.0 0.09 0.72 0.71 95 999.9
20260903000020 59 270 0.0 1.0 0.09 0.70 0.69 95 999.9
20260902235059 59 270 0.0 2.0 0.09 0.68 0.67 95 999.9
20260902234020 60 270 0.0 1.0 0.09 0.67 0.66 95 1000.0
20260902233020 60 270 0.0 2.0 0.08 0.66 0.65 94 999.9
20260902232020 60 248 0.0 2.0 0.07 0.65 0.64 94 999.9
20260902231059 60 248 0.0 2.0 0.06 0.63 0.62 94 999.9
20260902230019 60 225 1.0 2.0 0.04 0.61 0.60 94 999.9
20260902225020 61 203 0.0 1.0 0.03 0.59 0.58 94 999.9
20260902224019 61 203 0.0 1.0 0.03 0.58 0.57 94 999.9
20260902223019 61 203 1.0 3.0 0.03 0.58 0.57 94 999.9
20260902222020 61 203 2.0 4.0 0.04 0.58 0.57 94 999.9
20260902221019 61 225 1.0 3.0 0.04 0.57 0.56 94 1000.1
20260902220020 61 158 0.0 2.0 0.05 0.57 0.56 94 1000.2
20260902215019 61 158 1.0 3.0 0.05 0.56 0.55 93 1000.2
20260902214019 61 158 1.0 3.0 0.04 0.55 0.54 93 1000.4
20260902213019 61 180 3.0 6.0 0.04 0.55 0.54 93 1000.4
20260902212059 61 135 2.0 4.0 0.04 0.54 0.53 93 1000.4
20260902211020 61 158 3.0 6.0 0.03 0.53 0.52 92 1000.4
20260902210019 61 180 1.0 3.0 0.02 0.52 0.51 92 1000.4
20260902205100 61 135 2.0 3.0 0.02 0.51 0.50 92 1000.4
20260902204059 61 113 1.0 3.0 0.03 0.51 0.50 92 1000.4
20260902203019 61 158 4.0 8.0 0.04 0.51 0.50 92 1000.4
20260902202019 61 180 6.0 12.0 0.04 0.50 0.49 91 1000.4
20260902201019 62 180 5.0 9.0 0.04 0.50 0.49 92 1000.4
20260902200059 62 180 3.0 4.0 0.03 0.49 0.49 92 1000.5
20260902195019 62 180 5.0 7.0 0.03 0.49 0.48 90 1000.5
20260902194019 63 180 5.0 8.0 0.02 0.48 0.47 87 1000.6